�������l�o���
Date,Time,MP-1(��Sv/h),MP-2(��Sv/h),MP-3(��Sv/h),MP-4(��Sv/h),MP-5(��Sv/h),MP-6(��Sv/h),MP-7(��Sv/h),MP-8(��Sv/h),����,����(m/s),���J
2020/04/13,00:00,0.706,1.023,0.683,1.238,0.889,0.400,0.701,0.665,�k�k��,7.3,��
2020/04/13,00:10,0.706,1.023,0.681,1.233,0.887,0.401,0.700,0.664,�k�k��,6.4,��
2020/04/13,00:20,0.707,1.023,0.683,1.233,0.888,0.400,0.700,0.663,�k�k��,6.8,��
2020/04/13,00:30,0.706,1.022,0.684,1.234,0.887,0.402,0.700,0.665,�k,7.2,��
2020/04/13,00:40,0.705,1.023,0.680,1.235,0.888,0.401,0.699,0.664,�k,6.8,��
2020/04/13,00:50,0.706,1.023,0.681,1.235,0.888,0.401,0.699,0.662,�k,6.4,��
2020/04/13,01:00,0.704,1.022,0.680,1.235,0.889,0.402,0.699,0.665,�k,6.5,�L
2020/04/13,01:10,0.706,1.024,0.681,1.234,0.885,0.401,0.699,0.665,�k,7.7,�L
2020/04/13,01:20,0.707,1.023,0.680,1.237,0.887,0.399,0.699,0.662,�k�k��,6.3,�L
2020/04/13,01:30,0.708,1.022,0.682,1.236,0.889,0.401,0.701,0.663,�k�k��,8.1,�L
2020/04/13,01:40,0.707,1.023,0.681,1.235,0.890,0.401,0.700,0.664,�k�k��,10.0,�L
2020/04/13,01:50,0.704,1.021,0.679,1.235,0.887,0.401,0.699,0.662,�k�k��,9.8,�L
2020/04/13,02:00,0.706,1.023,0.680,1.235,0.886,0.401,0.700,0.663,�k�k��,9.7,�L
2020/04/13,02:10,0.706,1.021,0.680,1.235,0.887,0.402,0.699,0.663,�k�k��,10.7,�L
2020/04/13,02:20,0.706,1.021,0.681,1.238,0.887,0.400,0.700,0.663,�k�k��,9.5,�L
2020/04/13,02:30,0.709,1.023,0.680,1.235,0.885,0.402,0.700,0.665,�k�k��,9.7,�L
2020/04/13,02:40,0.707,1.022,0.682,1.237,0.885,0.400,0.699,0.663,�k�k��,9.1,�L
2020/04/13,02:50,0.706,1.019,0.680,1.235,0.887,0.402,0.701,0.663,�k�k��,9.3,�L
2020/04/13,03:00,0.704,1.020,0.681,1.235,0.886,0.402,0.699,0.664,�k�k��,9.2,�L
2020/04/13,03:10,0.703,1.016,0.679,1.235,0.882,0.401,0.698,0.665,�k�k��,9.5,�L
2020/04/13,03:20,0.704,1.013,0.678,1.234,0.882,0.401,0.698,0.661,�k�k��,10.5,�L
2020/04/13,03:30,0.703,1.004,0.676,1.230,0.876,0.401,0.698,0.661,�k�k��,8.8,�L
2020/04/13,03:40,0.698,0.996,0.671,1.224,0.870,0.401,0.693,0.659,-,CALM,�L
2020/04/13,03:50,0.695,0.991,0.669,1.218,0.867,0.399,0.691,0.658,�k��,9.1,�L
2020/04/13,04:00,0.691,0.987,0.667,1.209,0.860,0.396,0.687,0.656,�k��,6.3,�L
2020/04/13,04:10,0.690,0.982,0.667,1.204,0.859,0.399,0.689,0.655,�k�k��,8.4,�L
2020/04/13,04:20,0.687,0.977,0.665,1.197,0.855,0.398,0.686,0.656,�k�k��,8.0,�L
2020/04/13,04:30,0.685,0.976,0.662,1.191,0.852,0.396,0.688,0.654,�k�k��,10.7,�L
2020/04/13,04:40,0.684,0.975,0.664,1.190,0.853,0.394,0.684,0.654,�k�k��,10.5,�L
2020/04/13,04:50,0.684,0.973,0.661,1.187,0.847,0.395,0.687,0.651,�k��,10.6,�L
2020/04/13,05:00,0.682,0.970,0.661,1.184,0.847,0.394,0.684,0.654,�k�k��,10.5,�L
2020/04/13,05:10,0.680,0.968,0.661,1.179,0.847,0.394,0.685,0.653,�k�k��,11.9,�L
2020/04/13,05:20,0.677,0.965,0.659,1.178,0.844,0.392,0.683,0.652,�k�k��,11.3,�L
2020/04/13,05:30,0.678,0.966,0.658,1.175,0.843,0.392,0.683,0.651,�k�k��,11.9,�L
2020/04/13,05:40,0.680,0.965,0.660,1.171,0.845,0.392,0.684,0.653,�k�k��,12.1,�L
2020/04/13,05:50,0.680,0.966,0.658,1.174,0.845,0.393,0.684,0.653,�k�k��,11.9,�L
2020/04/13,06:00,0.680,0.965,0.659,1.174,0.845,0.393,0.682,0.652,�k�k��,11.8,�L
2020/04/13,06:10,0.680,0.964,0.658,1.175,0.843,0.393,0.683,0.651,�k�k��,12.1,�L
2020/04/13,06:20,0.681,0.964,0.659,1.174,0.845,0.392,0.684,0.651,�k�k��,10.6,�L
2020/04/13,06:30,0.679,0.963,0.657,1.174,0.845,0.394,0.683,0.651,�k�k��,9.9,�L
2020/04/13,06:40,0.679,0.962,0.658,1.172,0.842,0.393,0.681,0.651,�k�k��,10.7,�L
2020/04/13,06:50,0.678,0.960,0.655,1.169,0.840,0.392,0.681,0.650,�k�k��,10.7,�L
2020/04/13,07:00,0.676,0.956,0.654,1.166,0.837,0.393,0.679,0.651,�k�k��,11.3,�L
2020/04/13,07:10,0.675,0.954,0.654,1.162,0.836,0.393,0.679,0.648,�k�k��,11.3,�L
2020/04/13,07:20,0.674,0.955,0.654,1.158,0.833,0.392,0.680,0.648,�k��,10.9,�L
2020/04/13,07:30,0.673,0.952,0.654,1.156,0.833,0.390,0.678,0.647,�k�k��,9.9,�L
2020/04/13,07:40,0.672,0.951,0.653,1.156,0.831,0.393,0.678,0.647,�k�k��,10.7,�L
2020/04/13,07:50,0.675,0.953,0.651,1.155,0.832,0.392,0.679,0.649,�k�k��,12.0,�L
2020/04/13,08:00,0.675,0.951,0.653,1.153,0.830,0.389,0.678,0.648,�k�k��,12.2,�L
2020/04/13,08:10,0.672,0.947,0.653,1.153,0.830,0.392,0.678,0.647,�k�k��,11.8,�L
2020/04/13,08:20,0.673,0.946,0.651,1.153,0.829,0.393,0.677,0.648,�k�k��,12.5,�L
2020/04/13,08:30,0.675,0.950,0.653,1.156,0.828,0.394,0.679,0.650,�k�k��,11.1,�L
2020/04/13,08:40,0.675,0.950,0.653,1.156,0.831,0.391,0.678,0.649,�k�k��,11.1,�L
2020/04/13,08:50,0.672,0.948,0.652,1.156,0.829,0.392,0.677,0.649,�k�k��,12.0,�L
2020/04/13,09:00,0.674,0.945,0.649,1.152,0.828,0.392,0.676,0.649,�k�k��,11.4,�L
2020/04/13,09:10,0.673,0.943,0.652,1.151,0.826,0.391,0.675,0.648,���k��,7.9,�L
2020/04/13,09:20,0.672,0.940,0.651,1.148,0.825,0.391,0.677,0.646,�k�k��,12.4,�L
2020/04/13,09:30,0.670,0.943,0.651,1.148,0.825,0.392,0.678,0.647,�k�k��,12.2,�L
2020/04/13,09:40,0.671,0.944,0.651,1.151,0.825,0.392,0.677,0.648,�k�k��,11.6,�L
2020/04/13,09:50,0.672,0.942,0.653,1.147,0.823,0.392,0.676,0.648,�k�k��,12.5,�L
2020/04/13,10:00,0.672,0.943,0.652,1.150,0.825,0.389,0.676,0.648,�k�k��,12.0,�L
2020/04/13,10:10,0.674,0.944,0.652,1.151,0.825,0.392,0.676,0.649,�k�k��,11.6,�L
2020/04/13,10:20,0.674,0.945,0.651,1.148,0.823,0.391,0.678,0.647,�k�k��,11.7,�L
2020/04/13,10:30,0.672,0.942,0.649,1.151,0.823,0.392,0.676,0.648,�k�k��,11.3,�L
2020/04/13,10:40,0.672,0.939,0.650,1.145,0.819,0.392,0.676,0.646,�k�k��,12.5,�L
2020/04/13,10:50,0.671,0.938,0.652,1.147,0.821,0.391,0.675,0.647,�k�k��,12.4,�L
2020/04/13,11:00,0.671,0.940,0.652,1.144,0.819,0.395,0.677,0.648,�k�k��,13.6,�L
2020/04/13,11:10,0.672,0.941,0.651,1.145,0.822,0.394,0.676,0.647,�k�k��,12.5,�L
2020/04/13,11:20,0.673,0.941,0.652,1.146,0.821,0.395,0.676,0.648,�k�k��,11.9,�L
2020/04/13,11:30,0.674,0.942,0.651,1.145,0.820,0.395,0.676,0.647,�k�k��,12.5,�L
2020/04/13,11:40,0.671,0.940,0.651,1.146,0.818,0.395,0.675,0.646,�k�k��,13.8,�L
2020/04/13,11:50,0.672,0.940,0.650,1.146,0.819,0.395,0.676,0.646,�k�k��,12.8,�L
2020/04/13,12:00,0.673,0.944,0.652,1.147,0.817,0.393,0.676,0.646,�k�k��,13.1,�L
2020/04/13,12:10,0.672,0.942,0.651,1.146,0.816,0.394,0.674,0.647,�k��,14.6,�L
2020/04/13,12:20,0.670,0.940,0.651,1.143,0.816,0.394,0.674,0.646,�k��,13.0,�L
2020/04/13,12:30,0.669,0.937,0.649,1.142,0.813,0.392,0.674,0.647,�k�k��,12.7,�L
2020/04/13,12:40,0.668,0.937,0.647,1.140,0.813,0.391,0.674,0.644,�k�k��,14.9,�L
2020/04/13,12:50,0.667,0.934,0.648,1.138,0.810,0.391,0.673,0.646,�k��,14.1,�L
2020/04/13,13:00,0.667,0.933,0.646,1.138,0.809,0.392,0.674,0.643,�k�k��,12.7,�L
2020/04/13,13:10,0.665,0.931,0.646,1.135,0.807,0.391,0.672,0.645,�k��,14.4,�L
2020/04/13,13:20,0.667,0.931,0.646,1.136,0.808,0.392,0.673,0.645,�k��,17.1,�L
2020/04/13,13:30,0.668,0.932,0.648,1.140,0.810,0.391,0.674,0.644,�k�k��,16.1,�L
2020/04/13,13:40,0.669,0.934,0.649,1.142,0.807,0.392,0.673,0.646,�k��,15.5,�L
2020/04/13,13:50,0.669,0.934,0.648,1.140,0.809,0.393,0.671,0.646,�k�k��,16.9,�L
2020/04/13,14:00,0.667,0.934,0.647,1.139,0.808,0.391,0.673,0.645,�k��,15.2,�L
2020/04/13,14:10,0.666,0.935,0.647,1.141,0.808,0.390,0.675,0.646,�k�k��,16.3,�L
2020/04/13,14:20,0.667,0.933,0.647,1.140,0.807,0.393,0.673,0.644,�k�k��,18.3,�L
2020/04/13,14:30,0.666,0.931,0.646,1.138,0.804,0.391,0.673,0.646,�k�k��,15.8,�L
2020/04/13,14:40,0.667,0.932,0.646,1.140,0.806,0.391,0.673,0.645,�k�k��,16.3,�L
2020/04/13,14:50,0.665,0.930,0.645,1.140,0.804,0.390,0.673,0.643,-,CALM,�L
2020/04/13,15:00,0.663,0.927,0.642,1.134,0.801,0.389,0.670,0.643,-,CALM,�L
2020/04/13,15:10,0.661,0.927,0.641,1.133,0.799,0.390,0.669,0.643,-,CALM,�L
2020/04/13,15:20,0.659,0.924,0.640,1.130,0.798,0.387,0.670,0.641,-,CALM,�L
2020/04/13,15:30,0.657,0.919,0.638,1.125,0.794,0.386,0.668,0.640,-,CALM,�L
2020/04/13,15:40,0.658,0.919,0.638,1.126,0.793,0.386,0.668,0.640,�k�k��,13.8,�L
2020/04/13,15:50,0.660,0.922,0.639,1.128,0.791,0.387,0.670,0.642,-,CALM,�L
2020/04/13,16:00,0.659,0.922,0.637,1.129,0.790,0.387,0.668,0.640,-,CALM,�L
2020/04/13,16:10,0.659,0.919,0.638,1.128,0.792,0.386,0.668,0.640,-,CALM,�L
2020/04/13,16:20,0.656,0.921,0.636,1.127,0.790,0.386,0.667,0.639,-,CALM,�L
2020/04/13,16:30,0.658,0.919,0.638,1.127,0.791,0.386,0.666,0.639,�k,19.1,�L
2020/04/13,16:40,0.656,0.918,0.636,1.125,0.788,0.388,0.665,0.639,�k�k��,19.8,�L
2020/04/13,16:50,0.656,0.917,0.635,1.122,0.787,0.385,0.663,0.639,�k�k��,20.2,�L
2020/04/13,17:00,0.655,0.914,0.633,1.119,0.782,0.385,0.664,0.638,�k,19.1,�L
2020/04/13,17:10,0.653,0.912,0.631,1.116,0.781,0.384,0.661,0.638,�k,18.2,�L
2020/04/13,17:20,0.654,0.913,0.629,1.114,0.779,0.385,0.663,0.638,�k�k��,16.3,�L
2020/04/13,17:30,0.653,0.915,0.629,1.115,0.780,0.384,0.662,0.635,-,CALM,�L
2020/04/13,17:40,0.652,0.914,0.629,1.117,0.780,0.385,0.662,0.636,-,CALM,�L
2020/04/13,17:50,0.653,0.913,0.626,1.114,0.778,0.385,0.662,0.637,�k,16.6,�L
2020/04/13,18:00,0.651,0.913,0.627,1.116,0.777,0.385,0.663,0.636,-,CALM,�L
2020/04/13,18:10,0.653,0.912,0.624,1.113,0.776,0.385,0.662,0.637,�k,14.4,�L
2020/04/13,18:20,0.651,0.910,0.622,1.115,0.775,0.384,0.662,0.637,�k�k��,20.8,�L
2020/04/13,18:30,0.654,0.912,0.623,1.117,0.778,0.385,0.661,0.637,�k�k��,20.2,�L
2020/04/13,18:40,0.652,0.916,0.621,1.117,0.779,0.386,0.664,0.637,�k�k��,16.9,�L
2020/04/13,18:50,0.650,0.915,0.620,1.118,0.774,0.384,0.661,0.638,�k,16.8,�L
2020/04/13,19:00,0.648,0.913,0.617,1.115,0.775,0.383,0.662,0.637,�k,17.7,�L
2020/04/13,19:10,0.652,0.909,0.616,1.116,0.775,0.384,0.660,0.635,�k�k��,16.6,�L
2020/04/13,19:20,0.650,0.911,0.616,1.116,0.774,0.384,0.662,0.636,�k,18.8,�L
2020/04/13,19:30,0.652,0.912,0.616,1.119,0.773,0.384,0.662,0.635,�k,18.0,�L
2020/04/13,19:40,0.651,0.913,0.618,1.117,0.769,0.383,0.663,0.636,�k,18.5,�L
2020/04/13,19:50,0.652,0.915,0.618,1.117,0.772,0.382,0.662,0.635,�k,20.5,�L
2020/04/13,20:00,0.651,0.913,0.619,1.117,0.770,0.387,0.663,0.636,�k,20.5,�L
2020/04/13,20:10,0.651,0.913,0.619,1.118,0.771,0.386,0.662,0.636,�k,18.3,�L
2020/04/13,20:20,0.655,0.915,0.618,1.120,0.773,0.386,0.663,0.636,�k,16.6,�L
2020/04/13,20:30,0.652,0.918,0.618,1.118,0.771,0.385,0.662,0.636,�k�k��,16.6,�L
2020/04/13,20:40,0.653,0.916,0.619,1.119,0.768,0.384,0.662,0.635,-,CALM,�L
2020/04/13,20:50,0.652,0.913,0.618,1.119,0.767,0.384,0.663,0.636,�k,18.0,�L
2020/04/13,21:00,0.652,0.914,0.617,1.117,0.769,0.384,0.661,0.635,�k,16.9,�L
2020/04/13,21:10,0.652,0.913,0.617,1.116,0.768,0.385,0.661,0.637,�k,13.3,�L
2020/04/13,21:20,0.651,0.914,0.618,1.119,0.768,0.384,0.661,0.635,�k�k��,12.5,�L
2020/04/13,21:30,0.650,0.912,0.617,1.114,0.768,0.383,0.660,0.634,�k�k��,11.8,�L
2020/04/13,21:40,0.648,0.911,0.617,1.116,0.766,0.384,0.660,0.636,�k�k��,12.1,�L
2020/04/13,21:50,0.651,0.913,0.615,1.115,0.766,0.384,0.659,0.636,�k�k��,12.5,�L
2020/04/13,22:00,0.651,0.913,0.614,1.113,0.767,0.384,0.660,0.633,�k�k��,12.7,�L
2020/04/13,22:10,0.650,0.910,0.614,1.114,0.766,0.384,0.659,0.634,�k�k��,11.9,�L
2020/04/13,22:20,0.652,0.913,0.615,1.115,0.766,0.384,0.660,0.634,�k�k��,13.1,�L
2020/04/13,22:30,0.652,0.915,0.616,1.114,0.765,0.385,0.660,0.634,�k�k��,13.0,�L
2020/04/13,22:40,0.651,0.913,0.615,1.115,0.767,0.383,0.658,0.634,�k�k��,12.7,�L
2020/04/13,22:50,0.651,0.915,0.615,1.114,0.765,0.385,0.659,0.634,�k�k��,15.3,�L
2020/04/13,23:00,0.652,0.914,0.618,1.116,0.767,0.385,0.661,0.636,�k�k��,13.3,�L
2020/04/13,23:10,0.654,0.914,0.616,1.115,0.767,0.384,0.661,0.634,�k�k��,13.1,�L
2020/04/13,23:20,0.652,0.915,0.617,1.118,0.766,0.384,0.661,0.637,�k�k��,11.3,�L
2020/04/13,23:30,0.654,0.918,0.618,1.116,0.767,0.384,0.661,0.636,�k�k��,13.8,�L
2020/04/13,23:40,0.655,0.919,0.618,1.120,0.770,0.384,0.662,0.637,�k�k��,14.9,�L
2020/04/13,23:50,0.656,0.920,0.620,1.123,0.768,0.384,0.662,0.636,�k�k��,12.7,�L
